"datetime","temp","dp","rain_mm","uv","solar","mb","wind_mph","gust_mph","windchill","rh"
"2016-03-26 00:00:00",5.5,4.0,0.0,0.0,0,1013.8,4,5,"",90
"2016-03-26 00:01:00",5.5,4.0,0.0,0.0,0,1013.8,2,4,"",90
"2016-03-26 00:02:00",5.5,4.0,0.0,0.0,0,1013.8,1,2,"",90
"2016-03-26 00:03:00",5.5,4.0,0.0,0.0,0,1013.7,0,1,"",90
"2016-03-26 00:04:00",5.5,4.0,0.0,0.0,0,1013.6,0,0,"",90
"2016-03-26 00:05:00",5.5,4.0,0.0,0.0,0,1013.7,0,1,"",90
"2016-03-26 00:06:00",5.5,4.0,0.0,0.0,0,1013.6,1,3,"",90
"2016-03-26 00:07:00",5.5,4.0,0.0,0.0,0,1013.6,1,3,"",90
"2016-03-26 00:08:00",5.5,4.0,0.0,0.0,0,1013.6,1,3,"",90
"2016-03-26 00:09:00",5.5,4.0,0.0,0.0,0,1013.5,2,3,"",90
"2016-03-26 00:10:00",5.6,4.1,0.0,0.0,0,1013.5,1,2,"",90
"2016-03-26 00:11:00",5.5,3.8,0.0,0.0,0,1013.5,0,1,"",89
"2016-03-26 00:12:00",5.5,3.8,0.0,0.0,0,1013.6,1,2,"",89
"2016-03-26 00:13:00",5.5,3.8,0.0,0.0,0,1013.6,1,2,"",89
"2016-03-26 00:14:00",5.5,3.8,0.0,0.0,0,1013.6,2,3,"",89
"2016-03-26 00:15:00",5.5,3.8,0.0,0.0,0,1013.5,1,2,"",89
"2016-03-26 00:16:00",5.5,3.8,0.0,0.0,0,1013.5,1,2,"",89
"2016-03-26 00:17:00",5.5,3.8,0.0,0.0,0,1013.5,1,2,"",89
"2016-03-26 00:18:00",5.5,3.8,0.0,0.0,0,1013.5,1,2,"",89
"2016-03-26 00:19:00",5.5,3.8,0.0,0.0,0,1013.5,2,4,"",89
"2016-03-26 00:20:00",5.5,3.8,0.0,0.0,0,1013.5,2,3,"",89
"2016-03-26 00:21:00",5.5,3.8,0.0,0.0,0,1013.4,1,3,"",89
"2016-03-26 00:22:00",5.5,3.8,0.0,0.0,0,1013.4,1,2,"",89
"2016-03-26 00:23:00",5.5,3.8,0.0,0.0,0,1013.3,1,1,"",89
"2016-03-26 00:24:00",5.5,3.8,0.0,0.0,0,1013.3,2,4,"",89
"2016-03-26 00:25:00",5.5,4.0,0.0,0.0,0,1013.2,2,3,"",90
"2016-03-26 00:26:00",5.5,4.0,0.0,0.0,0,1013.2,2,3,"",90
"2016-03-26 00:27:00",5.5,4.0,0.0,0.0,0,1013.2,2,4,"",90
"2016-03-26 00:28:00",5.5,4.0,0.0,0.0,0,1013.2,1,3,"",90
"2016-03-26 00:29:00",5.5,4.0,0.0,0.0,0,1013.2,2,3,"",90
"2016-03-26 00:30:00",5.5,4.0,0.0,0.0,0,1013.2,1,2,"",90
"2016-03-26 00:31:00",5.5,4.0,0.0,0.0,0,1013.2,2,5,"",90
"2016-03-26 00:32:00",5.5,4.0,0.0,0.0,0,1013.2,3,6,"",90
"2016-03-26 00:33:00",5.6,4.1,0.0,0.0,0,1013.2,2,3,"",90
"2016-03-26 00:34:00",5.6,4.1,0.0,0.0,0,1013.2,3,5,"",90
"2016-03-26 00:35:00",5.6,4.1,0.0,0.0,0,1013.1,4,5,"",90
"2016-03-26 00:36:00",5.6,4.1,0.0,0.0,0,1013.1,2,4,"",90
"2016-03-26 00:37:00",5.6,4.1,0.0,0.0,0,1013.1,1,2,"",90
"2016-03-26 00:38:00",5.6,4.1,0.0,0.0,0,1013.0,2,4,"",90
"2016-03-26 00:39:00",5.6,4.1,0.0,0.0,0,1013.0,2,4,"",90
"2016-03-26 00:40:00",5.6,4.1,0.0,0.0,0,1013.0,2,4,"",90
"2016-03-26 00:41:00",5.6,4.1,0.0,0.0,0,1013.0,1,2,"",90
"2016-03-26 00:42:00",5.6,4.1,0.0,0.0,0,1013.0,2,3,"",90
"2016-03-26 00:43:00",5.6,4.1,0.0,0.0,0,1013.0,1,2,"",90
"2016-03-26 00:44:00",5.6,4.1,0.0,0.0,0,1012.9,1,2,"",90
"2016-03-26 00:45:00",5.6,4.1,0.0,0.0,0,1012.9,1,3,"",90
"2016-03-26 00:46:00",5.7,4.2,0.0,0.0,0,1012.9,3,5,"",90
"2016-03-26 00:47:00",5.7,4.2,0.0,0.0,0,1012.9,3,6,"",90
"2016-03-26 00:48:00",5.7,4.2,0.0,0.0,0,1012.9,1,2,"",90
"2016-03-26 00:49:00",5.7,4.2,0.0,0.0,0,1012.8,2,3,"",90
"2016-03-26 00:50:00",5.7,4.2,0.0,0.0,0,1012.8,1,4,"",90
"2016-03-26 00:51:00",5.7,4.2,0.0,0.0,0,1012.8,3,4,"",90
"2016-03-26 00:52:00",5.7,4.2,0.0,0.0,0,1012.7,4,5,"",90
"2016-03-26 00:53:00",5.7,4.2,0.0,0.0,0,1012.7,3,4,"",90
"2016-03-26 00:54:00",5.7,4.2,0.0,0.0,0,1012.7,3,5,"",90
"2016-03-26 00:55:00",5.8,4.3,0.0,0.0,0,1012.7,2,5,"",90
"2016-03-26 00:56:00",5.8,4.3,0.0,0.0,0,1012.7,3,6,"",90
"2016-03-26 00:57:00",5.8,4.3,0.0,0.0,0,1012.6,1,3,"",90
"2016-03-26 00:58:00",5.8,4.3,0.0,0.0,0,1012.6,2,4,"",90
"2016-03-26 00:59:00",5.8,4.3,0.0,0.0,0,1012.6,3,4,"",90
"2016-03-26 01:00:00",5.8,4.3,0.0,0.0,0,1012.6,1,2,"",90
"2016-03-26 01:01:00",5.8,4.3,0.0,0.0,0,1012.6,2,3,"",90
"2016-03-26 01:02:00",5.8,4.3,0.0,0.0,0,1012.6,2,3,"",90
"2016-03-26 01:03:00",5.8,4.3,0.0,0.0,0,1012.6,3,6,"",90
"2016-03-26 01:04:00",5.9,4.4,0.0,0.0,0,1012.6,2,4,"",90
"2016-03-26 01:05:00",5.9,4.4,0.0,0.0,0,1012.6,1,2,"",90
"2016-03-26 01:06:00",5.9,4.4,0.0,0.0,0,1012.6,1,3,"",90
"2016-03-26 01:07:00",5.9,4.4,0.0,0.0,0,1012.5,3,5,"",90
"2016-03-26 01:08:00",5.9,4.4,0.0,0.0,0,1012.6,3,5,"",90
"2016-03-26 01:09:00",5.9,4.4,0.0,0.0,0,1012.5,4,7,"",90
"2016-03-26 01:10:00",5.9,4.4,0.0,0.0,0,1012.5,2,3,"",90
"2016-03-26 01:11:00",6.0,4.5,0.0,0.0,0,1012.5,2,3,"",90
"2016-03-26 01:12:00",6.0,4.5,0.0,0.0,0,1012.5,4,7,"",90
"2016-03-26 01:13:00",6.0,4.5,0.0,0.0,0,1012.5,2,6,"",90
"2016-03-26 01:14:00",6.0,4.5,0.0,0.0,0,1012.5,3,7,"",90
"2016-03-26 01:15:00",6.1,4.6,0.0,0.0,0,1012.5,5,7,"",90
"2016-03-26 01:16:00",6.1,4.6,0.0,0.0,0,1012.5,2,4,"",90
"2016-03-26 01:17:00",6.1,4.6,0.0,0.0,0,1012.4,3,5,"",90
"2016-03-26 01:18:00",6.1,4.6,0.0,0.0,0,1012.4,2,3,"",90
"2016-03-26 01:19:00",6.1,4.6,0.0,0.0,0,1012.4,4,9,"",90
"2016-03-26 01:20:00",6.1,4.6,0.0,0.0,0,1012.4,2,3,"",90
"2016-03-26 01:21:00",6.1,4.6,0.0,0.0,0,1012.3,1,2,"",90
"2016-03-26 01:22:00",6.1,4.6,0.0,0.0,0,1012.3,1,2,"",90
"2016-03-26 01:23:00",6.2,4.7,0.0,0.0,0,1012.2,1,7,"",90
"2016-03-26 01:24:00",6.2,4.7,0.0,0.0,0,1012.3,4,6,"",90
"2016-03-26 01:25:00",6.2,4.7,0.0,0.0,0,1012.2,2,2,"",90
"2016-03-26 01:26:00",6.2,4.5,0.0,0.0,0,1012.2,3,5,"",89
"2016-03-26 01:27:00",6.2,4.5,0.0,0.0,0,1012.1,2,3,"",89
"2016-03-26 01:28:00",6.2,4.5,0.0,0.0,0,1012.1,2,5,"",89
"2016-03-26 01:29:00",6.2,4.5,0.0,0.0,0,1012.1,3,6,"",89
"2016-03-26 01:30:00",6.2,4.5,0.0,0.0,0,1012.0,2,5,"",89
"2016-03-26 01:31:00",6.2,4.5,0.0,0.0,0,1012.0,2,3,"",89
"2016-03-26 01:32:00",6.2,4.5,0.0,0.0,0,1011.9,2,4,"",89
"2016-03-26 01:33:00",6.2,4.5,0.0,0.0,0,1011.9,2,3,"",89
"2016-03-26 01:34:00",6.3,4.6,0.0,0.0,0,1011.9,3,6,"",89
"2016-03-26 01:35:00",6.3,4.6,0.0,0.0,0,1011.9,3,5,"",89
"2016-03-26 01:36:00",6.3,4.6,0.0,0.0,0,1011.8,1,2,"",89
"2016-03-26 01:37:00",6.3,4.6,0.0,0.0,0,1011.8,1,1,"",89
"2016-03-26 01:38:00",6.3,4.8,0.0,0.0,0,1011.8,1,2,"",90
"2016-03-26 01:39:00",6.3,4.8,0.0,0.0,0,1011.8,4,8,"",90
"2016-03-26 01:40:00",6.3,4.8,0.0,0.0,0,1011.7,1,2,"",90
"2016-03-26 01:41:00",6.3,4.8,0.0,0.0,0,1011.7,1,2,"",90
"2016-03-26 01:42:00",6.3,4.8,0.0,0.0,0,1011.7,0,0,"",90
"2016-03-26 01:43:00",6.4,4.9,0.0,0.0,0,1011.6,1,2,"",90
"2016-03-26 01:44:00",6.4,4.9,0.0,0.0,0,1011.6,2,4,"",90
"2016-03-26 01:45:00",6.4,4.9,0.0,0.0,0,1011.5,3,6,"",90
"2016-03-26 01:46:00",6.4,4.9,0.0,0.0,0,1011.5,2,4,"",90
"2016-03-26 01:47:00",6.4,4.9,0.0,0.0,0,1011.5,1,2,"",90
"2016-03-26 01:48:00",6.4,4.9,0.0,0.0,0,1011.5,0,2,"",90
"2016-03-26 01:49:00",6.4,4.9,0.0,0.0,0,1011.5,1,2,"",90
"2016-03-26 01:50:00",6.4,4.9,0.0,0.0,0,1011.5,1,3,"",90
"2016-03-26 01:51:00",6.4,4.9,0.0,0.0,0,1011.4,1,2,"",90
"2016-03-26 01:52:00",6.4,4.9,0.0,0.0,0,1011.3,2,5,"",90
"2016-03-26 01:53:00",6.4,4.9,0.0,0.0,0,1011.4,2,3,"",90
"2016-03-26 01:54:00",6.5,5.0,0.0,0.0,0,1011.3,1,2,"",90
"2016-03-26 01:55:00",6.5,5.0,0.0,0.0,0,1011.3,1,2,"",90
"2016-03-26 01:56:00",6.5,5.0,0.0,0.0,0,1011.2,2,4,"",90
"2016-03-26 01:57:00",6.5,5.0,0.0,0.0,0,1011.2,4,9,"",90
"2016-03-26 01:58:00",6.5,5.0,0.0,0.0,0,1011.2,1,4,"",90
"2016-03-26 01:59:00",6.6,5.1,0.0,0.0,0,1011.2,2,5,"",90
"2016-03-26 02:00:00",6.6,5.2,0.0,0.0,0,1011.1,1,2,"",91
"2016-03-26 02:01:00",6.6,5.2,0.0,0.0,0,1011.2,1,2,"",91
"2016-03-26 02:02:00",6.6,5.2,0.0,0.0,0,1011.1,2,4,"",91
"2016-03-26 02:03:00",6.6,5.2,0.0,0.0,0,1011.1,3,6,"",91
"2016-03-26 02:04:00",6.7,5.3,0.0,0.0,0,1011.0,1,5,"",91
"2016-03-26 02:05:00",6.7,5.3,0.0,0.0,0,1010.9,4,10,"",91
"2016-03-26 02:06:00",6.7,5.3,0.0,0.0,0,1011.0,4,6,"",91
"2016-03-26 02:07:00",6.7,5.3,0.0,0.0,0,1010.9,4,8,"",91
"2016-03-26 02:08:00",6.7,5.3,0.0,0.0,0,1010.9,2,5,"",91
"2016-03-26 02:09:00",6.7,5.3,0.0,0.0,0,1010.9,2,4,"",91
"2016-03-26 02:10:00",6.8,5.4,0.0,0.0,0,1010.9,2,5,"",91
"2016-03-26 02:11:00",6.8,5.4,0.0,0.0,0,1011.0,4,7,"",91
"2016-03-26 02:12:00",6.8,5.4,0.0,0.0,0,1011.0,5,12,"",91
"2016-03-26 02:13:00",6.8,5.6,0.0,0.0,0,1010.9,4,10,"",92
"2016-03-26 02:14:00",6.8,5.6,0.0,0.0,0,1010.9,5,8,"",92
"2016-03-26 02:15:00",6.9,5.7,0.0,0.0,0,1010.8,4,7,"",92
"2016-03-26 02:16:00",6.9,5.7,0.0,0.0,0,1010.8,5,8,"",92
"2016-03-26 02:17:00",6.9,5.7,0.0,0.0,0,1010.8,4,7,"",92
"2016-03-26 02:18:00",6.9,5.7,0.0,0.0,0,1010.9,3,5,"",92
"2016-03-26 02:19:00",7.0,5.8,0.0,0.0,0,1010.8,4,6,"",92
"2016-03-26 02:20:00",7.0,5.8,0.0,0.0,0,1010.8,3,6,"",92
"2016-03-26 02:21:00",7.0,5.8,0.0,0.0,0,1010.8,4,6,"",92
"2016-03-26 02:22:00",7.1,5.9,0.0,0.0,0,1010.8,6,10,"",92
"2016-03-26 02:23:00",7.1,5.9,0.0,0.0,0,1010.8,3,5,"",92
"2016-03-26 02:24:00",7.1,5.9,0.0,0.0,0,1010.8,5,8,"",92
"2016-03-26 02:25:00",7.1,5.9,0.0,0.0,0,1010.9,5,8,"",92
"2016-03-26 02:26:00",7.1,5.9,0.0,0.0,0,1010.9,3,6,"",92
"2016-03-26 02:27:00",7.1,5.9,0.0,0.0,0,1010.9,4,8,"",92
"2016-03-26 02:28:00",7.1,5.9,0.0,0.0,0,1010.9,3,6,"",92
"2016-03-26 02:29:00",7.1,5.9,0.0,0.0,0,1010.9,3,4,"",92
"2016-03-26 02:30:00",7.2,6.0,0.0,0.0,0,1010.9,3,6,"",92
"2016-03-26 02:31:00",7.2,6.0,0.0,0.0,0,1010.9,4,6,"",92
"2016-03-26 02:32:00",7.2,6.0,0.0,0.0,0,1010.9,4,9,"",92
"2016-03-26 02:33:00",7.2,6.0,0.0,0.0,0,1010.8,3,4,"",92
"2016-03-26 02:34:00",7.2,6.0,0.0,0.0,0,1010.8,3,6,"",92
"2016-03-26 02:35:00",7.2,6.0,0.0,0.0,0,1010.7,3,4,"",92
"2016-03-26 02:36:00",7.2,6.0,0.0,0.0,0,1010.7,5,10,"",92
"2016-03-26 02:37:00",7.2,6.0,0.0,0.0,0,1010.7,4,9,"",92
"2016-03-26 02:38:00",7.2,6.0,0.0,0.0,0,1010.7,2,4,"",92
"2016-03-26 02:39:00",7.2,6.0,0.0,0.0,0,1010.7,3,5,"",92
"2016-03-26 02:40:00",7.2,6.0,0.0,0.0,0,1010.7,2,4,"",92
"2016-03-26 02:41:00",7.2,6.0,0.0,0.0,0,1010.7,2,4,"",92
"2016-03-26 02:42:00",7.2,6.0,0.0,0.0,0,1010.8,5,10,"",92
"2016-03-26 02:43:00",7.2,6.0,0.0,0.0,0,1010.7,4,5,"",92
"2016-03-26 02:44:00",7.2,6.0,0.0,0.0,0,1010.7,2,4,"",92
"2016-03-26 02:45:00",7.2,6.0,0.0,0.0,0,1010.7,2,5,"",92
"2016-03-26 02:46:00",7.2,6.0,0.0,0.0,0,1010.7,3,9,"",92
"2016-03-26 02:47:00",7.2,6.0,0.0,0.0,0,1010.6,6,12,"",92
"2016-03-26 02:48:00",7.2,6.0,0.0,0.0,0,1010.6,2,4,"",92
"2016-03-26 02:49:00",7.2,6.0,0.0,0.0,0,1010.6,2,4,"",92
"2016-03-26 02:50:00",7.2,6.0,0.0,0.0,0,1010.6,1,3,"",92
"2016-03-26 02:51:00",7.2,6.0,0.0,0.0,0,1010.5,3,5,"",92
"2016-03-26 02:52:00",7.2,5.8,0.0,0.0,0,1010.6,3,5,"",91
"2016-03-26 02:53:00",7.2,5.8,0.0,0.0,0,1010.5,3,5,"",91
"2016-03-26 02:54:00",7.2,5.8,0.0,0.0,0,1010.5,2,4,"",91
"2016-03-26 02:55:00",7.2,5.8,0.0,0.0,0,1010.5,3,7,"",91
"2016-03-26 02:56:00",7.2,5.8,0.0,0.0,0,1010.5,5,10,"",91
"2016-03-26 02:57:00",7.2,5.8,0.0,0.0,0,1010.4,2,4,"",91
"2016-03-26 02:58:00",7.2,5.8,0.0,0.0,0,1010.4,4,6,"",91
"2016-03-26 02:59:00",7.2,5.8,0.0,0.0,0,1010.4,2,4,"",91
"2016-03-26 03:00:00",7.2,5.8,0.0,0.0,0,1010.4,2,4,"",91
"2016-03-26 03:01:00",7.2,5.8,0.0,0.0,0,1010.3,3,10,"",91
"2016-03-26 03:02:00",7.2,5.8,0.0,0.0,0,1010.3,5,9,"",91
"2016-03-26 03:03:00",7.2,5.8,0.0,0.0,0,1010.3,3,6,"",91
"2016-03-26 03:04:00",7.2,5.8,0.0,0.0,0,1010.3,3,6,"",91
"2016-03-26 03:05:00",7.2,5.8,0.0,0.0,0,1010.3,5,9,"",91
"2016-03-26 03:06:00",7.2,5.8,0.0,0.0,0,1010.3,2,3,"",91
"2016-03-26 03:07:00",7.2,5.8,0.0,0.0,0,1010.2,4,9,"",91
"2016-03-26 03:08:00",7.2,6.0,0.0,0.0,0,1010.2,3,10,"",92
"2016-03-26 03:09:00",7.2,5.8,0.0,0.0,0,1010.3,2,2,"",91
"2016-03-26 03:10:00",7.2,5.8,0.0,0.0,0,1010.2,4,7,"",91
"2016-03-26 03:11:00",7.2,6.0,0.0,0.0,0,1010.2,4,7,"",92
"2016-03-26 03:12:00",7.2,5.8,0.0,0.0,0,1010.2,2,4,"",91
"2016-03-26 03:13:00",7.2,5.8,0.0,0.0,0,1010.2,6,12,"",91
"2016-03-26 03:14:00",7.2,5.8,0.0,0.0,0,1010.2,3,6,"",91
"2016-03-26 03:15:00",7.2,6.0,0.0,0.0,0,1010.2,3,4,"",92
"2016-03-26 03:16:00",7.2,6.0,0.0,0.0,0,1010.2,2,3,"",92
"2016-03-26 03:17:00",7.2,6.0,0.0,0.0,0,1010.2,3,9,"",92
"2016-03-26 03:18:00",7.2,5.8,0.0,0.0,0,1010.2,3,9,"",91
"2016-03-26 03:19:00",7.2,5.8,0.0,0.0,0,1010.1,2,5,"",91
"2016-03-26 03:20:00",7.2,5.8,0.0,0.0,0,1010.1,4,6,"",91
"2016-03-26 03:21:00",7.2,5.8,0.0,0.0,0,1010.1,3,5,"",91
"2016-03-26 03:22:00",7.2,5.8,0.0,0.0,0,1010.1,2,4,"",91
"2016-03-26 03:23:00",7.2,5.8,0.0,0.0,0,1010.1,2,7,"",91
"2016-03-26 03:24:00",7.2,5.8,0.0,0.0,0,1010.1,3,6,"",91
"2016-03-26 03:25:00",7.2,6.0,0.0,0.0,0,1010.1,4,6,"",92
"2016-03-26 03:26:00",7.2,6.0,0.0,0.0,0,1010.1,3,5,"",92
"2016-03-26 03:27:00",7.2,6.0,0.0,0.0,0,1010.0,2,7,"",92
"2016-03-26 03:28:00",7.2,6.0,0.0,0.0,0,1010.0,3,8,"",92
"2016-03-26 03:29:00",7.2,5.8,0.0,0.0,0,1010.0,3,6,"",91
"2016-03-26 03:30:00",7.2,6.0,0.0,0.0,0,1010.0,5,9,"",92
"2016-03-26 03:31:00",7.2,6.0,0.0,0.0,0,1010.0,4,8,"",92
"2016-03-26 03:32:00",7.2,6.0,0.0,0.0,0,1010.0,4,9,"",92
"2016-03-26 03:33:00",7.2,6.0,0.0,0.0,0,1010.0,2,3,"",92
"2016-03-26 03:34:00",7.2,6.0,0.0,0.0,0,1010.0,2,2,"",92
"2016-03-26 03:35:00",7.2,6.0,0.0,0.0,0,1010.0,2,4,"",92
"2016-03-26 03:36:00",7.2,6.0,0.0,0.0,0,1010.0,2,4,"",92
"2016-03-26 03:37:00",7.2,6.0,0.0,0.0,0,1010.0,2,6,"",92
"2016-03-26 03:38:00",7.2,6.0,0.0,0.0,0,1010.0,3,5,"",92
"2016-03-26 03:39:00",7.2,6.0,0.0,0.0,0,1010.0,4,8,"",92
"2016-03-26 03:40:00",7.3,6.1,0.0,0.0,0,1010.0,4,6,"",92
"2016-03-26 03:41:00",7.3,6.1,0.0,0.0,0,1010.0,6,10,"",92
"2016-03-26 03:42:00",7.3,6.1,0.0,0.0,0,1010.0,4,6,"",92
"2016-03-26 03:43:00",7.3,6.1,0.0,0.0,0,1010.0,2,4,"",92
"2016-03-26 03:44:00",7.3,6.1,0.0,0.0,0,1010.0,5,10,"",92
"2016-03-26 03:45:00",7.3,6.1,0.0,0.0,0,1010.0,3,10,"",92
"2016-03-26 03:46:00",7.3,6.1,0.0,0.0,0,1009.9,3,6,"",92
"2016-03-26 03:47:00",7.3,6.1,0.0,0.0,0,1009.9,3,6,"",92
"2016-03-26 03:48:00",7.3,6.1,0.0,0.0,0,1009.9,6,11,"",92
"2016-03-26 03:49:00",7.3,6.1,0.0,0.0,0,1009.8,2,6,"",92
"2016-03-26 03:50:00",7.4,6.2,0.0,0.0,0,1009.8,2,5,"",92
"2016-03-26 03:51:00",7.4,6.2,0.0,0.0,0,1009.8,2,4,"",92
"2016-03-26 03:52:00",7.4,6.2,0.0,0.0,0,1009.8,4,7,"",92
"2016-03-26 03:53:00",7.4,6.2,0.0,0.0,0,1009.7,5,8,"",92
"2016-03-26 03:54:00",7.4,6.2,0.0,0.0,0,1009.7,2,5,"",92
"2016-03-26 03:55:00",7.4,6.2,0.0,0.0,0,1009.6,4,7,"",92
"2016-03-26 03:56:00",7.4,6.2,0.0,0.0,0,1009.5,3,7,"",92
"2016-03-26 03:57:00",7.4,6.2,0.0,0.0,0,1009.5,3,4,"",92
"2016-03-26 03:58:00",7.4,6.2,0.0,0.0,0,1009.6,5,8,"",92
"2016-03-26 03:59:00",7.5,6.3,0.0,0.0,0,1009.6,2,5,"",92
"2016-03-26 04:00:00",7.5,6.3,0.0,0.0,0,1009.6,1,3,"",92
"2016-03-26 04:01:00",7.5,6.3,0.0,0.0,0,1009.5,2,4,"",92
"2016-03-26 04:02:00",7.5,6.3,0.0,0.0,0,1009.6,3,6,"",92
"2016-03-26 04:03:00",7.5,6.3,0.0,0.0,0,1009.5,2,4,"",92
"2016-03-26 04:04:00",7.6,6.4,0.0,0.0,0,1009.5,3,4,"",92
"2016-03-26 04:05:00",7.6,6.4,0.0,0.0,0,1009.5,2,5,"",92
"2016-03-26 04:06:00",7.6,6.4,0.0,0.0,0,1009.5,3,6,"",92
"2016-03-26 04:07:00",7.6,6.4,0.0,0.0,0,1009.5,1,2,"",92
"2016-03-26 04:08:00",7.6,6.4,0.0,0.0,0,1009.4,3,5,"",92
"2016-03-26 04:09:00",7.6,6.4,0.0,0.0,0,1009.4,2,3,"",92
"2016-03-26 04:10:00",7.6,6.4,0.0,0.0,0,1009.4,2,3,"",92
"2016-03-26 04:11:00",7.6,6.4,0.0,0.0,0,1009.4,2,4,"",92
"2016-03-26 04:12:00",7.7,6.5,0.0,0.0,0,1009.3,2,4,"",92
"2016-03-26 04:13:00",7.7,6.5,0.0,0.0,0,1009.2,1,2,"",92
"2016-03-26 04:14:00",7.7,6.5,0.0,0.0,0,1009.2,0,1,"",92
"2016-03-26 04:15:00",7.7,6.5,0.0,0.0,0,1009.2,3,4,"",92
"2016-03-26 04:16:00",7.7,6.5,0.0,0.0,0,1009.2,2,3,"",92
"2016-03-26 04:17:00",7.7,6.5,0.0,0.0,0,1009.2,2,5,"",92
"2016-03-26 04:18:00",7.7,6.5,0.0,0.0,0,1009.1,5,8,"",92
"2016-03-26 04:19:00",7.7,6.5,0.0,0.0,0,1009.2,2,4,"",92
"2016-03-26 04:20:00",7.7,6.5,0.0,0.0,0,1009.1,2,4,"",92
"2016-03-26 04:21:00",7.7,6.5,0.0,0.0,0,1009.1,2,5,"",92
"2016-03-26 04:22:00",7.7,6.5,0.0,0.0,0,1009.1,4,7,"",92
"2016-03-26 04:23:00",7.7,6.5,0.0,0.0,0,1009.1,4,10,"",92
"2016-03-26 04:24:00",7.7,6.5,0.0,0.0,0,1009.1,3,7,"",92
"2016-03-26 04:25:00",7.7,6.5,0.0,0.0,0,1009.1,2,4,"",92
"2016-03-26 04:26:00",7.7,6.5,0.0,0.0,0,1009.2,3,5,"",92
"2016-03-26 04:27:00",7.7,6.5,0.0,0.0,0,1009.2,5,8,"",92
"2016-03-26 04:28:00",7.7,6.5,0.0,0.0,0,1009.2,7,12,"",92
"2016-03-26 04:29:00",7.7,6.5,0.0,0.0,0,1009.2,4,7,"",92
"2016-03-26 04:30:00",7.7,6.5,0.0,0.0,0,1009.2,3,5,"",92
"2016-03-26 04:31:00",7.7,6.5,0.0,0.0,0,1009.2,4,7,"",92
"2016-03-26 04:32:00",7.7,6.5,0.0,0.0,0,1009.2,7,9,"",92
"2016-03-26 04:33:00",7.7,6.5,0.0,0.0,0,1009.2,5,7,"",92
"2016-03-26 04:34:00",7.7,6.5,0.0,0.0,0,1009.1,3,5,"",92
"2016-03-26 04:35:00",7.7,6.5,0.0,0.0,0,1009.2,3,4,"",92
"2016-03-26 04:36:00",7.7,6.5,0.0,0.0,0,1009.1,1,4,"",92
"2016-03-26 04:37:00",7.7,6.5,0.0,0.0,0,1009.2,2,4,"",92
"2016-03-26 04:38:00",7.7,6.5,0.0,0.0,0,1009.2,5,10,"",92
"2016-03-26 04:39:00",7.7,6.5,0.0,0.0,0,1009.3,3,6,"",92
"2016-03-26 04:40:00",7.7,6.5,0.0,0.0,0,1009.2,4,9,"",92
"2016-03-26 04:41:00",7.7,6.5,0.0,0.0,0,1009.2,4,8,"",92
"2016-03-26 04:42:00",7.7,6.5,0.0,0.0,0,1009.2,3,6,"",92
"2016-03-26 04:43:00",7.7,6.5,0.0,0.0,0,1009.2,2,4,"",92
"2016-03-26 04:44:00",7.7,6.5,0.0,0.0,0,1009.2,4,8,"",92
"2016-03-26 04:45:00",7.7,6.5,0.0,0.0,0,1009.2,3,5,"",92
"2016-03-26 04:46:00",7.7,6.5,0.0,0.0,0,1009.1,3,6,"",92
"2016-03-26 04:47:00",7.7,6.5,0.0,0.0,0,1009.1,3,5,"",92
"2016-03-26 04:48:00",7.7,6.5,0.0,0.0,0,1009.1,4,7,"",92
"2016-03-26 04:49:00",7.7,6.5,0.0,0.0,0,1009.1,6,10,"",92
"2016-03-26 04:50:00",7.7,6.5,0.0,0.0,0,1009.1,3,7,"",92
"2016-03-26 04:51:00",7.7,6.5,0.0,0.0,0,1009.1,4,9,"",92
"2016-03-26 04:52:00",7.7,6.5,0.0,0.0,0,1009.1,3,4,"",92
"2016-03-26 04:53:00",7.7,6.5,0.0,0.0,0,1009.1,3,5,"",92
"2016-03-26 04:54:00",7.7,6.5,0.0,0.0,0,1009.1,6,9,"",92
"2016-03-26 04:55:00",7.7,6.5,0.0,0.0,0,1009.0,4,8,"",92
"2016-03-26 04:56:00",7.7,6.5,0.0,0.0,0,1009.0,5,9,"",92
"2016-03-26 04:57:00",7.7,6.3,0.0,0.0,0,1009.0,5,8,"",91
"2016-03-26 04:58:00",7.7,6.3,0.0,0.0,0,1008.9,5,14,"",91
"2016-03-26 04:59:00",7.7,6.3,0.0,0.0,0,1009.0,6,12,"",91
"2016-03-26 05:00:00",7.7,6.3,0.0,0.0,0,1008.9,4,8,"",91
"2016-03-26 05:01:00",7.7,6.3,0.0,0.0,0,1008.8,4,7,"",91
"2016-03-26 05:02:00",7.7,6.3,0.0,0.0,0,1008.9,3,4,"",91
"2016-03-26 05:03:00",7.7,6.3,0.0,0.0,0,1008.8,3,7,"",91
"2016-03-26 05:04:00",7.7,6.3,0.0,0.0,0,1008.8,6,9,"",91
"2016-03-26 05:05:00",7.7,6.3,0.0,0.0,0,1008.8,7,11,"",91
"2016-03-26 05:06:00",7.7,6.3,0.0,0.0,0,1008.8,6,10,"",91
"2016-03-26 05:07:00",7.7,6.3,0.0,0.0,0,1008.7,8,14,"",91
"2016-03-26 05:08:00",7.7,6.3,0.0,0.0,0,1008.8,6,9,"",91
"2016-03-26 05:09:00",7.7,6.3,0.0,0.0,0,1008.7,7,12,"",91
"2016-03-26 05:10:00",7.7,6.3,0.0,0.0,0,1008.7,3,8,"",91
"2016-03-26 05:11:00",7.7,6.3,0.0,0.0,0,1008.8,4,7,"",91
"2016-03-26 05:12:00",7.7,6.3,0.0,0.0,0,1008.8,3,7,"",91
"2016-03-26 05:13:00",7.7,6.3,0.0,0.0,0,1008.8,2,4,"",91
"2016-03-26 05:14:00",7.7,6.3,0.0,0.0,0,1008.9,5,10,"",91
"2016-03-26 05:15:00",7.7,6.3,0.0,0.0,0,1008.8,5,8,"",91
"2016-03-26 05:16:00",7.7,6.2,0.0,0.0,0,1008.8,5,7,"",90
"2016-03-26 05:17:00",7.7,6.2,0.0,0.0,0,1008.8,4,7,"",90
"2016-03-26 05:18:00",7.7,6.2,0.0,0.0,0,1008.8,5,11,"",90
"2016-03-26 05:19:00",7.7,6.2,0.0,0.0,0,1008.8,7,14,"",90
"2016-03-26 05:20:00",7.7,6.2,0.0,0.0,0,1008.7,4,7,"",90
"2016-03-26 05:21:00",7.7,6.2,0.0,0.0,0,1008.7,3,4,"",90
"2016-03-26 05:22:00",7.7,6.2,0.0,0.0,0,1008.8,2,3,"",90
"2016-03-26 05:23:00",7.7,6.2,0.0,0.0,0,1008.7,4,8,"",90
"2016-03-26 05:24:00",7.7,6.2,0.0,0.0,0,1008.8,5,11,"",90
"2016-03-26 05:25:00",7.7,6.2,0.0,0.0,0,1008.7,6,11,"",90
"2016-03-26 05:26:00",7.7,6.2,0.0,0.0,0,1008.8,6,11,"",90
"2016-03-26 05:27:00",7.7,6.2,0.0,0.0,0,1008.8,8,15,"",90
"2016-03-26 05:28:00",7.7,6.2,0.0,0.0,0,1008.7,8,15,"",90
"2016-03-26 05:29:00",7.7,6.0,0.0,0.0,0,1008.7,4,10,"",89
"2016-03-26 05:30:00",7.7,6.0,0.0,0.0,0,1008.6,3,6,"",89
"2016-03-26 05:31:00",7.7,6.0,0.0,0.0,0,1008.6,5,9,"",89
"2016-03-26 05:32:00",7.7,6.0,0.0,0.0,0,1008.6,4,10,"",89
"2016-03-26 05:33:00",7.7,6.0,0.0,0.0,0,1008.6,3,4,"",89
"2016-03-26 05:34:00",7.7,6.0,0.0,0.0,0,1008.7,5,8,"",89
"2016-03-26 05:35:00",7.7,6.0,0.0,0.0,0,1008.7,2,6,"",89
"2016-03-26 05:36:00",7.7,6.0,0.0,0.0,0,1008.7,6,11,"",89
"2016-03-26 05:37:00",7.7,6.0,0.0,0.0,0,1008.7,5,9,"",89
"2016-03-26 05:38:00",7.7,6.0,0.0,0.0,0,1008.8,2,5,"",89
"2016-03-26 05:39:00",7.7,6.0,0.0,0.0,0,1008.7,3,4,"",89
"2016-03-26 05:40:00",7.7,6.0,0.0,0.0,0,1008.7,5,12,"",89
"2016-03-26 05:41:00",7.7,6.0,0.0,0.0,0,1008.8,5,9,"",89
"2016-03-26 05:42:00",7.7,6.0,0.0,0.0,0,1008.7,7,11,"",89
"2016-03-26 05:43:00",7.7,6.0,0.0,0.0,0,1008.8,6,10,"",89
"2016-03-26 05:44:00",7.7,6.0,0.0,0.0,0,1008.7,4,7,"",89
"2016-03-26 05:45:00",7.7,6.0,0.0,0.0,0,1008.8,3,5,"",89
"2016-03-26 05:46:00",7.7,6.0,0.0,0.0,0,1008.7,5,9,"",89
"2016-03-26 05:47:00",7.7,6.0,0.0,0.0,0,1008.7,4,7,"",89
"2016-03-26 05:48:00",7.7,6.0,0.0,0.0,0,1008.6,4,8,"",89
"2016-03-26 05:49:00",7.7,6.0,0.0,0.0,0,1008.6,3,5,"",89
"2016-03-26 05:50:00",7.7,6.0,0.0,0.0,0,1008.6,4,6,"",89
"2016-03-26 05:51:00",7.7,6.0,0.0,0.0,0,1008.5,3,4,"",89
"2016-03-26 05:52:00",7.7,5.8,0.0,0.0,0,1008.6,3,4,"",88
"2016-03-26 05:53:00",7.7,5.8,0.0,0.0,0,1008.5,4,13,"",88
"2016-03-26 05:54:00",7.7,5.8,0.0,0.0,0,1008.6,3,6,"",88
"2016-03-26 05:55:00",7.7,5.8,0.0,0.0,0,1008.5,2,3,"",88
"2016-03-26 05:56:00",7.7,5.8,0.0,0.0,0,1008.6,4,7,"",88
"2016-03-26 05:57:00",7.7,5.8,0.0,0.0,0,1008.5,3,5,"",88
"2016-03-26 05:58:00",7.7,5.8,0.0,0.0,0,1008.5,3,4,"",88
"2016-03-26 05:59:00",7.7,5.8,0.0,0.0,0,1008.5,1,2,"",88
"2016-03-26 06:00:00",7.7,5.8,0.0,0.0,0,1008.5,1,3,"",88
"2016-03-26 06:01:00",7.7,5.8,0.0,0.0,0,1008.5,6,11,"",88
"2016-03-26 06:02:00",7.7,5.8,0.0,0.0,0,1008.5,3,6,"",88
"2016-03-26 06:03:00",7.7,5.8,0.0,0.0,0,1008.5,3,7,"",88
"2016-03-26 06:04:00",7.7,5.8,0.0,0.0,0,1008.4,3,7,"",88
"2016-03-26 06:05:00",7.7,5.8,0.0,0.0,0,1008.4,1,2,"",88
"2016-03-26 06:06:00",7.7,5.8,0.0,0.0,0,1008.4,2,4,"",88
"2016-03-26 06:07:00",7.7,5.8,0.0,0.0,0,1008.3,3,6,"",88
"2016-03-26 06:08:00",7.7,5.8,0.0,0.0,5,1008.2,4,5,"",88
"2016-03-26 06:09:00",7.7,5.8,0.0,0.0,5,1008.2,4,5,"",88
"2016-03-26 06:10:00",7.7,5.8,0.0,0.0,5,1008.2,4,7,"",88
"2016-03-26 06:11:00",7.7,5.8,0.0,0.0,5,1008.2,3,4,"",88
"2016-03-26 06:12:00",7.7,5.8,0.0,0.0,5,1008.1,4,5,"",88
"2016-03-26 06:13:00",7.7,5.8,0.0,0.0,5,1008.2,4,5,"",88
"2016-03-26 06:14:00",7.7,5.8,0.0,0.0,5,1008.1,4,5,"",88
"2016-03-26 06:15:00",7.7,5.8,0.0,0.0,5,1008.1,3,7,"",88
"2016-03-26 06:16:00",7.7,5.8,0.0,0.0,5,1008.1,3,5,"",88
"2016-03-26 06:17:00",7.7,5.8,0.0,0.0,7,1008.1,2,4,"",88
"2016-03-26 06:18:00",7.7,5.8,0.0,0.0,7,1008.0,2,4,"",88
"2016-03-26 06:19:00",7.7,5.8,0.0,0.0,7,1008.0,2,4,"",88
"2016-03-26 06:20:00",7.7,5.8,0.0,0.0,9,1008.0,3,5,"",88
"2016-03-26 06:21:00",7.7,5.8,0.0,0.0,9,1008.0,4,6,"",88
"2016-03-26 06:22:00",7.7,5.8,0.0,0.0,11,1008.0,4,7,"",88
"2016-03-26 06:23:00",7.7,5.8,0.0,0.0,11,1008.0,2,3,"",88
"2016-03-26 06:24:00",7.7,5.8,0.0,0.0,12,1007.9,4,6,"",88
"2016-03-26 06:25:00",7.7,5.8,0.0,0.0,12,1008.0,3,4,"",88
"2016-03-26 06:26:00",7.7,5.8,0.0,0.0,14,1008.0,2,5,"",88
"2016-03-26 06:27:00",7.7,5.8,0.0,0.0,12,1008.0,4,7,"",88
"2016-03-26 06:28:00",7.7,6.0,0.0,0.0,12,1007.9,5,9,"",89
"2016-03-26 06:29:00",7.7,6.0,0.0,0.0,12,1007.9,3,4,"",89
"2016-03-26 06:30:00",7.7,6.0,0.0,0.0,12,1007.9,2,4,"",89
"2016-03-26 06:31:00",7.7,6.0,0.0,0.0,12,1007.9,4,7,"",89
"2016-03-26 06:32:00",7.7,6.0,0.0,0.0,16,1007.9,4,6,"",89
"2016-03-26 06:33:00",7.7,6.0,0.0,0.0,16,1007.8,2,5,"",89
"2016-03-26 06:34:00",7.7,6.0,0.0,0.0,16,1007.8,2,5,"",89
"2016-03-26 06:35:00",7.7,6.0,0.0,0.0,18,1007.8,3,5,"",89
"2016-03-26 06:36:00",7.7,6.0,0.0,0.0,19,1007.8,2,4,"",89
"2016-03-26 06:37:00",7.7,6.0,0.0,0.0,19,1007.8,5,9,"",89
"2016-03-26 06:38:00",7.7,6.0,0.0,0.0,23,1007.8,4,7,"",89
"2016-03-26 06:39:00",7.7,6.0,0.0,0.0,25,1007.8,2,4,"",89
"2016-03-26 06:40:00",7.7,6.0,0.0,0.0,25,1007.8,3,5,"",89
"2016-03-26 06:41:00",7.7,6.0,0.0,0.0,26,1007.8,4,5,"",89
"2016-03-26 06:42:00",7.7,6.0,0.0,0.0,28,1007.8,5,8,"",89
"2016-03-26 06:43:00",7.7,6.0,0.0,0.0,28,1007.8,5,7,"",89
"2016-03-26 06:44:00",7.7,6.0,0.0,0.0,26,1007.8,3,4,"",89
"2016-03-26 06:45:00",7.8,6.3,0.0,0.0,26,1007.9,2,7,"",90
"2016-03-26 06:46:00",7.8,6.3,0.0,0.0,26,1007.9,4,10,"",90
"2016-03-26 06:47:00",7.8,6.3,0.0,0.0,21,1007.9,2,4,"",90
"2016-03-26 06:48:00",7.7,6.2,0.0,0.0,25,1007.9,2,4,"",90
"2016-03-26 06:49:00",7.7,6.2,0.0,0.0,25,1007.9,5,12,"",90
"2016-03-26 06:50:00",7.7,6.2,0.0,0.0,25,1007.9,3,6,"",90
"2016-03-26 06:51:00",7.7,6.2,0.0,0.0,23,1007.8,4,9,"",90
"2016-03-26 06:52:00",7.7,6.2,0.0,0.0,21,1007.9,5,10,"",90
"2016-03-26 06:53:00",7.7,6.2,0.0,0.0,21,1007.9,3,5,"",90
"2016-03-26 06:54:00",7.7,6.2,0.0,0.0,23,1007.9,3,5,"",90
"2016-03-26 06:55:00",7.7,6.2,0.0,0.0,23,1008.0,3,7,"",90
"2016-03-26 06:56:00",7.7,6.2,0.0,0.0,16,1007.9,4,9,"",90
"2016-03-26 06:57:00",7.7,6.2,0.0,0.0,16,1008.0,4,6,"",90